This is the latest recevied weather packets stored in our database for station/object KC8ZBC. If no packets are shown the sender has not sent any weather packets the latest 10 day(s).
| Time | Temp. | Humidity | Pressure | Rain* | Wind** | Luminosity | Snow |
|---|---|---|---|---|---|---|---|
| 1778008634 | 12.78° C | 65% | 982.6 hPa | 0 mm | - | 89 W/m² | - |
| 1778008332 | 12.22° C | 65% | 982.3 hPa | 0 mm | - | 121 W/m² | - |
| 1778008028 | 12.22° C | 64% | 982.6 hPa | 0 mm | - | 94 W/m² | - |
| 1778007727 | 12.22° C | 65% | 982.6 hPa | 0 mm | - | 115 W/m² | - |
| 1778007425 | 12.22° C | 64% | 982.8 hPa | 0 mm | - | 117 W/m² | - |
| 1778007121 | 12.22° C | 64% | 982.5 hPa | 0 mm | - | 117 W/m² | - |
| 1778006817 | 12.78° C | 62% | 982.6 hPa | 0 mm | - | 89 W/m² | - |
| 1778006514 | 12.78° C | 63% | 982.6 hPa | 0 mm | - | 166 W/m² | - |
| 1778006211 | 12.78° C | 62% | 982.5 hPa | 0 mm | - | 144 W/m² | - |
| 1778005909 | 12.78° C | 62% | 982.4 hPa | 0 mm | - | 171 W/m² | - |
| 1778005604 | 12.22° C | 62% | 982.3 hPa | 0 mm | - | 174 W/m² | - |
| 1778005302 | 12.22° C | 64% | 982.3 hPa | 0 mm | - | 163 W/m² | - |
| 1778004998 | 12.22° C | 61% | 982.2 hPa | 0 mm | - | 111 W/m² | - |
| 1778004696 | 12.78° C | 60% | 981.9 hPa | 0 mm | - | 135 W/m² | - |
| 1778004392 | 12.78° C | 58% | 981.9 hPa | 0 mm | - | 175 W/m² | - |
| 1778004089 | 13.33° C | 61% | 981.9 hPa | 0 mm | - | 268 W/m² | - |
| 1778003785 | 12.78° C | 66% | 982.1 hPa | 0 mm | - | 305 W/m² | - |
| 1778003482 | 12.78° C | 69% | 981.9 hPa | 0 mm | - | 214 W/m² | - |
| 1778003178 | 12.22° C | 70% | 981.8 hPa | 0 mm | - | 219 W/m² | - |
| 1778002874 | 12.22° C | 70% | 981.9 hPa | 0 mm | - | 198 W/m² | - |
| 1778002571 | 12.22° C | 70% | 981.9 hPa | 0 mm | - | 163 W/m² | - |
| 1778002268 | 12.22° C | 69% | 982 hPa | 0 mm | - | 191 W/m² | - |
| 1778001966 | 11.67° C | 71% | 982 hPa | 0 mm | - | 181 W/m² | - |
| 1778001663 | 11.67° C | 71% | 981.7 hPa | 0 mm | - | 152 W/m² | - |
| 1778001357 | 11.67° C | 73% | 981.7 hPa | 0 mm | - | 176 W/m² | - |
* Rain latest hour (hover to see other rain measurements)
** Current wind speed in m/s (hover to see current wind gust speed)